TimeCST,TemperatureF,Dew PointF,Humidity,Sea Level PressureIn,VisibilityMPH,Wind Direction,Wind SpeedMPH,Gust SpeedMPH,PrecipitationIn,Events,Conditions,WindDirDegrees,DateUTC
12:58 AM,39.9,27.5,61,29.70,10.0,NNE,3.5,-,N/A,,Clear,30,2014-02-01 06:58:00
1:58 AM,37.0,26.2,65,29.73,10.0,NW,3.5,-,N/A,,Clear,310,2014-02-01 07:58:00
2:58 AM,33.6,24.8,70,29.72,10.0,North,1.2,-,N/A,,Clear,10,2014-02-01 08:58:00
3:58 AM,34.3,26.6,73,29.74,10.0,North,6.9,-,N/A,,Clear,350,2014-02-01 09:58:00
4:58 AM,32.2,26.1,78,29.79,10.0,NNW,4.6,-,N/A,,Clear,340,2014-02-01 10:58:00
5:58 AM,31.3,25.9,80,29.82,10.0,NNW,8.1,-,N/A,,Clear,340,2014-02-01 11:58:00
6:43 AM,32.0,24.8,75,29.86,10.0,North,9.2,-,N/A,,Mostly Cloudy,360,2014-02-01 12:43:00
6:58 AM,30.4,25.3,82,29.88,10.0,North,9.2,-,N/A,,Mostly Cloudy,350,2014-02-01 12:58:00
7:58 AM,30.7,24.8,79,29.91,10.0,North,10.4,-,N/A,,Mostly Cloudy,360,2014-02-01 13:58:00
8:08 AM,32.0,24.8,75,29.90,10.0,North,9.2,-,N/A,,Overcast,360,2014-02-01 14:08:00
8:58 AM,31.6,24.6,75,29.94,10.0,North,8.1,-,N/A,,Overcast,350,2014-02-01 14:58:00
9:58 AM,33.6,25.0,71,29.96,10.0,NNW,8.1,-,N/A,,Overcast,340,2014-02-01 15:58:00
10:23 AM,33.8,24.8,70,29.93,10.0,North,9.2,-,N/A,,Overcast,360,2014-02-01 16:23:00
10:58 AM,36.1,25.0,64,29.96,10.0,North,9.2,-,N/A,,Overcast,350,2014-02-01 16:58:00
11:58 AM,38.5,25.2,59,29.94,10.0,North,9.2,-,N/A,,Overcast,10,2014-02-01 17:58:00
12:23 PM,39.2,24.8,56,29.92,10.0,North,9.2,-,N/A,,Overcast,350,2014-02-01 18:23:00
12:58 PM,40.3,25.0,54,29.91,10.0,North,8.1,-,N/A,,Overcast,10,2014-02-01 18:58:00
1:58 PM,43.2,26.1,51,29.88,10.0,NNE,10.4,-,N/A,,Overcast,20,2014-02-01 19:58:00
2:58 PM,45.0,27.3,50,29.88,10.0,NNE,9.2,-,N/A,,Overcast,20,2014-02-01 20:58:00
3:58 PM,46.2,27.7,48,29.87,10.0,NE,10.4,-,N/A,,Overcast,40,2014-02-01 21:58:00
4:13 PM,46.4,28.4,50,29.87,10.0,NNE,10.4,-,N/A,,Overcast,20,2014-02-01 22:13:00
4:58 PM,46.9,28.4,49,29.90,10.0,NE,12.7,-,N/A,,Overcast,40,2014-02-01 22:58:00
5:03 PM,46.4,30.2,53,29.88,10.0,NE,12.7,-,N/A,,Overcast,40,2014-02-01 23:03:00
5:58 PM,45.3,28.4,52,29.92,10.0,NE,10.4,-,N/A,,Overcast,40,2014-02-01 23:58:00
6:58 PM,45.1,26.6,48,29.94,10.0,ENE,6.9,-,N/A,,Overcast,60,2014-02-02 00:58:00
7:13 PM,44.6,26.6,49,29.92,10.0,ENE,8.1,-,N/A,,Overcast,60,2014-02-02 01:13:00
7:58 PM,44.8,26.2,48,29.97,10.0,NE,9.2,-,N/A,,Overcast,50,2014-02-02 01:58:00
8:03 PM,44.6,26.6,49,29.95,10.0,NE,8.1,-,N/A,,Overcast,40,2014-02-02 02:03:00
8:58 PM,43.2,24.3,47,30.01,10.0,NNE,12.7,-,N/A,,Mostly Cloudy,20,2014-02-02 02:58:00
9:03 PM,42.8,24.8,49,29.98,10.0,NNE,11.5,-,N/A,,Scattered Clouds,20,2014-02-02 03:03:00
9:28 PM,41.0,23.0,49,29.99,10.0,NNE,15.0,-,N/A,,Mostly Cloudy,20,2014-02-02 03:28:00
9:58 PM,40.8,23.2,50,30.02,10.0,NNE,13.8,-,N/A,,Overcast,20,2014-02-02 03:58:00
10:58 PM,38.8,22.3,51,30.04,10.0,NNE,15.0,23.0,N/A,,Overcast,30,2014-02-02 04:58:00
11:58 PM,37.0,21.9,54,30.05,10.0,NE,18.4,-,N/A,,Overcast,40,2014-02-02 05:58:00